• MPC Preparation (Info)

  • MPEC 2019-V117 : 2019 VH4

    The following Minor Planet Electronic Circular may be linked-to from your own Web pages, but must not otherwise be redistributed electronically.

    A form allowing access to any MPEC is at the bottom of this page.


    Read MPEC 2019-V116 Read MPEC 2019-V118


    M.P.E.C. 2019-V117                             Issued 2019 November 7, 19:05 UT
    
         The Minor Planet Electronic Circulars contain information on unusual
             minor planets and routine data on comets.  They are published
        on behalf of Division F of the International Astronomical Union by the
              Minor Planet Center, Smithsonian Astrophysical Observatory,
                              Cambridge, MA 02138, U.S.A.
    
                 Prepared using the Tamkin Foundation Computer Network
    
                                  MPC@CFA.HARVARD.EDU
                URL https://www.minorplanetcenter.net/    ISSN 1523-6714
    
                                    2019 VH4                                 
    
    
    Observations:
         K19V04H* C2019 11 05.35883 03 52 43.49 +21 45 11.7          21.5 GVEV117G96
         K19V04H  C2019 11 05.36396 03 52 42.08 +21 45 56.6          20.9 GVEV117G96
         K19V04H  C2019 11 05.36909 03 52 40.68 +21 46 40.7          20.8 GVEV117G96
         K19V04H  C2019 11 05.37421 03 52 39.31 +21 47 25.3          21.0 GVEV117G96
         K19V04H  C2019 11 05.39698403 52 32.88 +21 50 39.9          21.1 GVEV117H01
         K19V04H  C2019 11 05.40055903 52 31.93 +21 51 11.0          21.0 GVEV117H01
         K19V04H  C2019 11 05.41154103 52 28.97 +21 52 46.0          21.0 GVEV117H01
         K19V04H  C2019 11 05.42165803 52 26.27 +21 54 13.4          22.0 GVEV117H01
         K19V04H  C2019 11 06.24602703 49 03.19 +23 58 47.9          20.6 GVEV117H01
         K19V04H  C2019 11 06.24943303 49 02.17 +23 59 20.1          21.2 GVEV117H01
         K19V04H  C2019 11 06.26427503 48 57.73 +24 01 41.3          21.6 GVEV117H01
         K19V04H  C2019 11 06.27099503 48 55.70 +24 02 44.9          21.2 GVEV117H01
         K19V04H  C2019 11 07.23505 03 44 18.84 +26 40 32.2                VEV117G96
         K19V04H  C2019 11 07.23708 03 44 18.13 +26 40 53.3          21.2 GVEV117G96
         K19V04H  C2019 11 07.23911 03 44 17.42 +26 41 14.6          21.5 GVEV117G96
         K19V04H  C2019 11 07.40308 03 43 20.81 +27 09 25.4          21.2 GVEV117654
         K19V04H  C2019 11 07.40709 03 43 19.38 +27 10 06.8          21.2 GVEV117654
         K19V04H  C2019 11 07.44202 03 43 07.06 +27 16 06.2          21.2 GVEV117654
         K19V04H  C2019 11 07.44603 03 43 05.65 +27 16 47.5          21.2 GVEV117654
         K19V04H  C2019 11 07.45036 03 43 04.13 +27 17 32.0          21.2 GVEV117654
         K19V04H  C2019 11 07.45437 03 43 02.72 +27 18 13.4          21.2 GVEV117654
    
    Observer details:
    654 Table Mountain Observatory, Wrightwood-PHMC.  Observers P. Choi, N. Saini, 
       C. Zhai, R. Trahan, M. Shao.
    G96 Mt. Lemmon Survey.  Observers E. J. Christensen, T. A. Pruyne.  Measurers 
       E. J. Christensen, G. A. Farneth, D. C. Fuls, A. R. Gibbs, A. D. Grauer, H. 
       Groeller, R. A. Kowalski, S. M. Larson, G. J. Leonard, T. A. Pruyne, D. 
       Rankin, R. L. Seaman, F. C. Shelly, K. W. Wierzchos.  1.5-m reflector + 10K 
       CCD.
    H01 Magdalena Ridge Observatory, Socorro.  Observers W. H. Ryan, E. V. Ryan.  
        Measurer W. H. Ryan.  2.4-m f/8.9 Ritchey-Chretien + CCD.
    
    Orbital elements:
    2019 VH4                                                 Earth MOID = 0.0481 AU
    Epoch 2019 Apr. 27.0 TT = JDT 2458600.5                 Bell
    M 115.16526              (2000.0)            P               Q
    n   0.87465901     Peri.  106.10291     -0.83753176     -0.51258500
    a   1.0828714      Node    43.54991     +0.33403903     -0.75438077
    e   0.2522389      Incl.   15.93868     +0.43238695     -0.41008081
    P   1.13           H   25.5           G   0.15           U   7
    Residuals in seconds of arc
    191105 G96  0.3+  0.2-    191105 H01  0.0   0.0     191107 G96  0.3-  0.3+
    191105 G96  0.0   0.2+    191106 H01  0.1+  0.0     191107 654  0.2+  0.0
    191105 G96  0.2-  0.2-    191106 H01  0.0   0.1-    191107 654  0.1+  0.0
    191105 G96  0.0   0.0     191106 H01  0.0   0.1+    191107 654  0.0   0.1-
    191105 H01  0.1-  0.0     191106 H01  0.1-  0.1-    191107 654  0.0   0.0
    191105 H01  0.1+  0.2+    191107 G96  0.2+  0.1-    191107 654  0.0   0.1-
    191105 H01  0.1-  0.1+    191107 G96  0.1-  0.0     191107 654  0.1-  0.1+
    
    Ephemeris:
    2019 VH4                 a,e,i = 1.08, 0.25, 16                  q = 0.8097
    Date    TT    R. A. (2000) Decl.     Delta      r    Elong.  Phase     V
    2019 10 08    04 15 02.4 -03 49 00   0.2831  1.1962   128.5    40.9    24.8
    ...
    2019 10 23    04 16 45.0 +02 57 29   0.1784  1.1414   142.2    32.3    23.4
    ...
    2019 10 31    04 07 44.7 +11 30 45   0.1289  1.1097   153.3    23.7    22.4
    ...
    2019 11 06    03 50 05.4 +23 20 53   0.09781 1.0850   162.3    16.1    21.5
    2019 11 07    03 45 27.0 +26 01 00   0.09343 1.0808   163.0    15.6    21.4
    2019 11 08    03 40 04.6 +28 55 14   0.08934 1.0767   163.0    15.6    21.3
    ...
    2019 11 14    02 39 49.9 +50 48 43   0.07314 1.0512   146.5    31.3    21.3
    ...
    2019 11 22    21 54 21.7 +69 18 33   0.07977 1.0169   109.2    66.5    22.4
    ...
    2019 12 07    18 08 19.5 +48 08 07   0.1412  0.9528    72.7    99.2    24.7
    
    A. U. Tomatic                (C) Copyright 2019 MPC           M.P.E.C. 2019-V117
    


    Read MPEC 2019-V116 Read MPEC 2019-V118


    MPEC number:

    Enter an MPEC number in one of the following forms:

    • 1997-B01 (the full form)
    • J97B01 (the packed version of the full form)
    • B01 (the abbreviated form)